,,,PA_Meas_PMT16A,,PR_Meas_QMR101_102,,RH_Meas_QMH101,,SR_Meas_QMS101,,TA_Meas_QMH101,,GenWind,,GenWind,
date,time,status,PA,status,PR,status,RH,status,SR,status,TA,status,DirAvg,status,SpdAvg,
2009-11-03, 00:00:04,VALID,1000.69,VALID,0,VALID,93.2645,VALID,0,VALID,21.8106,VALID,107,VALID,0.490234,
2009-11-03, 00:01:04,VALID,1000.7,VALID,0,VALID,93.3789,VALID,0,VALID,21.8106,VALID,66,VALID,0.78125,
2009-11-03, 00:02:04,VALID,1000.72,VALID,0,VALID,93.5773,VALID,0,VALID,21.9082,VALID,64,VALID,0.721484,
2009-11-03, 00:03:04,VALID,1000.72,VALID,0,VALID,93.5315,VALID,0,VALID,21.9472,VALID,64,VALID,0.464844,
2009-11-03, 00:04:04,VALID,1000.71,VALID,0,VALID,93.3866,VALID,0,VALID,21.9667,VALID,47,VALID,0.786328,
2009-11-03, 00:05:04,VALID,1000.7,VALID,0,VALID,93.3026,VALID,0,VALID,21.9667,VALID,46,VALID,0.575,
2009-11-03, 00:06:04,VALID,1000.68,VALID,0,VALID,93.0814,VALID,0,VALID,21.9082,VALID,46,VALID,0.198437,
2009-11-03, 00:07:04,VALID,1000.64,VALID,0,VALID,92.9288,VALID,0,VALID,21.8301,VALID,46,VALID,0,
2009-11-03, 00:08:04,VALID,1000.66,VALID,0,VALID,92.944,VALID,0,VALID,21.8301,VALID,46,VALID,0,
2009-11-03, 00:09:04,VALID,1000.66,VALID,0,VALID,93.0051,VALID,0,VALID,21.8106,VALID,46,VALID,0,
2009-11-03, 00:10:04,VALID,1000.64,VALID,0,VALID,93.0737,VALID,0,VALID,21.8301,VALID,46,VALID,0.331641,
2009-11-03, 00:11:04,VALID,1000.64,VALID,0,VALID,93.1958,VALID,0,VALID,21.8496,VALID,48,VALID,0.535156,
2009-11-03, 00:12:04,VALID,1000.65,VALID,0,VALID,93.2492,VALID,0,VALID,21.8887,VALID,50,VALID,0.525781,
2009-11-03, 00:13:04,VALID,1000.63,VALID,0,VALID,93.0127,VALID,0,VALID,21.8692,VALID,50,VALID,0.383984,
2009-11-03, 00:14:04,VALID,1000.58,VALID,0,VALID,92.9364,VALID,0,VALID,21.8301,VALID,50,VALID,0.298828,
2009-11-03, 00:15:04,VALID,1000.57,VALID,0,VALID,92.8754,VALID,0,VALID,21.7895,VALID,50,VALID,0.182422,
2009-11-03, 00:16:04,VALID,1000.55,VALID,0,VALID,92.8525,VALID,0.112286,VALID,21.7293,VALID,50,VALID,0,
2009-11-03, 00:17:04,VALID,1000.55,VALID,0,VALID,92.8677,VALID,0,VALID,21.7115,VALID,50,VALID,0,
2009-11-03, 00:18:04,VALID,1000.56,VALID,0,VALID,92.9517,VALID,0,VALID,21.7115,VALID,50,VALID,0,
2009-11-03, 00:19:04,VALID,1000.53,VALID,0,VALID,93.0432,VALID,0.112286,VALID,21.7115,VALID,50,VALID,0,
2009-11-03, 00:20:04,VALID,1000.52,VALID,0,VALID,92.9974,VALID,0,VALID,21.7115,VALID,50,VALID,0,
2009-11-03, 00:21:04,VALID,1000.51,VALID,0,VALID,92.9974,VALID,0,VALID,21.692,VALID,50,VALID,0,
2009-11-03, 00:22:04,VALID,1000.47,VALID,0,VALID,93.0127,VALID,0,VALID,21.692,VALID,50,VALID,0,
2009-11-03, 00:23:04,VALID,1000.44,VALID,0,VALID,93.028,VALID,0,VALID,21.692,VALID,50,VALID,0,
2009-11-03, 00:24:04,VALID,1000.43,VALID,0,VALID,93.1119,VALID,0,VALID,21.692,VALID,50,VALID,0,
2009-11-03, 00:25:04,VALID,1000.43,VALID,0,VALID,93.15,VALID,0,VALID,21.7115,VALID,50,VALID,0,
2009-11-03, 00:26:04,VALID,1000.41,VALID,0,VALID,93.234,VALID,0,VALID,21.7505,VALID,50,VALID,0,
2009-11-03, 00:27:04,VALID,1000.39,VALID,0,VALID,93.295,VALID,0.112286,VALID,21.7895,VALID,50,VALID,0.160938,
2009-11-03, 00:28:04,VALID,1000.39,VALID,0,VALID,93.356,VALID,0,VALID,21.809,VALID,50,VALID,0.0390625,
2009-11-03, 00:29:04,VALID,1000.38,VALID,0,VALID,93.3484,VALID,0.112286,VALID,21.848,VALID,50,VALID,0,
2009-11-03, 00:30:04,VALID,1000.37,VALID,0,VALID,93.3331,VALID,0,VALID,21.8675,VALID,50,VALID,0,
2009-11-03, 00:31:04,VALID,1000.38,VALID,0,VALID,93.3484,VALID,0,VALID,21.8675,VALID,50,VALID,0,
2009-11-03, 00:32:04,VALID,1000.37,VALID,0,VALID,93.3179,VALID,0,VALID,21.8675,VALID,50,VALID,0,
2009-11-03, 00:33:04,VALID,1000.34,VALID,0,VALID,93.1958,VALID,0,VALID,21.8675,VALID,50,VALID,0,
2009-11-03, 00:34:05,VALID,1000.34,VALID,0,VALID,92.9745,VALID,0,VALID,21.8106,VALID,50,VALID,0.221484,
2009-11-03, 00:35:05,VALID,1000.29,VALID,0,VALID,92.9898,VALID,0,VALID,21.731,VALID,50,VALID,0.411328,
2009-11-03, 00:36:05,VALID,1000.28,VALID,0,VALID,93.2263,VALID,0,VALID,21.731,VALID,50,VALID,0.424609,
2009-11-03, 00:37:05,VALID,1000.28,VALID,0,VALID,93.3789,VALID,0,VALID,21.7895,VALID,50,VALID,0.392188,
2009-11-03, 00:38:05,VALID,1000.27,VALID,0,VALID,93.295,VALID,0,VALID,21.7895,VALID,50,VALID,0.324219,
2009-11-03, 00:39:05,VALID,1000.27,VALID,0,VALID,93.3331,VALID,0,VALID,21.8106,VALID,47,VALID,0.783203,
2009-11-03, 00:40:05,VALID,1000.27,VALID,0,VALID,93.2263,VALID,0.112286,VALID,21.7505,VALID,31,VALID,0.894141,
2009-11-03, 00:41:05,VALID,1000.29,VALID,0,VALID,93.1043,VALID,0,VALID,21.7115,VALID,31,VALID,0.790234,
2009-11-03, 00:42:05,VALID,1000.3,VALID,0,VALID,93.0432,VALID,0,VALID,21.653,VALID,31,VALID,0.566406,
2009-11-03, 00:43:05,VALID,1000.3,VALID,0,VALID,93.0127,VALID,0,VALID,21.5945,VALID,31,VALID,0.547656,
2009-11-03, 00:44:05,VALID,1000.29,VALID,0,VALID,93.2874,VALID,0,VALID,21.6335,VALID,25,VALID,0.613672,
2009-11-03, 00:45:05,VALID,1000.27,VALID,0,VALID,93.3026,VALID,0,VALID,21.653,VALID,21,VALID,0.507031,
2009-11-03, 00:46:05,VALID,1000.24,VALID,0,VALID,93.2797,VALID,0,VALID,21.6318,VALID,21,VALID,0.771484,
2009-11-03, 00:47:05,VALID,1000.26,VALID,0,VALID,93.3789,VALID,0,VALID,21.653,VALID,21,VALID,0.979297,
2009-11-03, 00:48:05,VALID,1000.25,VALID,0,VALID,93.4857,VALID,0,VALID,21.7115,VALID,21,VALID,1.07461,
2009-11-03, 00:49:05,VALID,1000.25,VALID,0,VALID,93.5086,VALID,0,VALID,21.731,VALID,27,VALID,1.11797,
2009-11-03, 00:50:05,VALID,1000.25,VALID,0,VALID,93.4323,VALID,0,VALID,21.7505,VALID,19,VALID,1.18945,
2009-11-03, 00:51:05,VALID,1000.24,VALID,0,VALID,93.4171,VALID,0,VALID,21.77,VALID,19,VALID,0.982422,
2009-11-03, 00:52:05,VALID,1000.25,VALID,0,VALID,93.3789,VALID,0,VALID,21.7505,VALID,20,VALID,0.951563,
2009-11-03, 00:53:05,VALID,1000.25,VALID,0,VALID,93.3637,VALID,0,VALID,21.77,VALID,20,VALID,1,
2009-11-03, 00:54:05,VALID,1000.22,VALID,0,VALID,93.3103,VALID,0,VALID,21.7895,VALID,20,VALID,0.857422,
2009-11-03, 00:55:05,VALID,1000.19,VALID,0,VALID,93.3179,VALID,0,VALID,21.7895,VALID,20,VALID,0.834375,
2009-11-03, 00:56:05,VALID,1000.19,VALID,0,VALID,93.3331,VALID,0,VALID,21.809,VALID,20,VALID,0.7125,
2009-11-03, 00:57:05,VALID,1000.17,VALID,0,VALID,93.3408,VALID,0,VALID,21.8285,VALID,22,VALID,0.891016,
2009-11-03, 00:58:05,VALID,1000.17,VALID,0,VALID,93.2721,VALID,0,VALID,21.8073,VALID,22,VALID,1.21211,
2009-11-03, 00:59:05,VALID,1000.16,VALID,0,VALID,93.2492,VALID,0,VALID,21.8285,VALID,22,VALID,1.11328,
2009-11-03, 01:00:05,VALID,1000.13,VALID,0,VALID,93.2034,VALID,0,VALID,21.8268,VALID,25,VALID,0.863672,
2009-11-03, 01:01:05,VALID,1000.16,VALID,0,VALID,93.2645,VALID,0,VALID,21.848,VALID,30,VALID,0.891797,
2009-11-03, 01:02:05,VALID,1000.16,VALID,0,VALID,93.2797,VALID,0,VALID,21.887,VALID,39,VALID,0.712109,
2009-11-03, 01:03:05,VALID,1000.16,VALID,0,VALID,93.2645,VALID,0,VALID,21.9065,VALID,39,VALID,0.673437,
2009-11-03, 01:04:05,VALID,1000.17,VALID,0,VALID,93.2568,VALID,0.112286,VALID,21.926,VALID,37,VALID,0.721094,
2009-11-03, 01:05:05,VALID,1000.18,VALID,0,VALID,93.2263,VALID,0,VALID,21.9243,VALID,27,VALID,0.694531,
2009-11-03, 01:06:05,VALID,1000.18,VALID,0,VALID,93.1577,VALID,0,VALID,21.9455,VALID,21,VALID,0.478906,
2009-11-03, 01:07:05,VALID,1000.17,VALID,0,VALID,93.1729,VALID,0,VALID,21.965,VALID,23,VALID,0.510156,
2009-11-03, 01:08:05,VALID,1000.16,VALID,0,VALID,93.2111,VALID,0,VALID,21.9845,VALID,23,VALID,0.430859,
2009-11-03, 01:09:05,VALID,1000.17,VALID,0,VALID,93.234,VALID,0,VALID,22.0235,VALID,30,VALID,0.472656,
2009-11-03, 01:10:05,VALID,1000.14,VALID,0,VALID,93.295,VALID,0,VALID,22.0625,VALID,44,VALID,0.6,
2009-11-03, 01:11:05,VALID,1000.13,VALID,0,VALID,93.2568,VALID,0,VALID,22.0608,VALID,52,VALID,0.759375,
2009-11-03, 01:12:05,VALID,1000.12,VALID,0,VALID,93.234,VALID,0,VALID,22.1015,VALID,52,VALID,0.776953,
2009-11-03, 01:13:05,VALID,1000.11,VALID,0,VALID,93.2111,VALID,0,VALID,22.121,VALID,52,VALID,0.761719,
2009-11-03, 01:14:05,VALID,1000.09,VALID,0,VALID,93.15,VALID,0,VALID,22.1405,VALID,49,VALID,0.630078,
2009-11-03, 01:15:05,VALID,1000.08,VALID,0,VALID,93.1348,VALID,0,VALID,22.1405,VALID,28,VALID,0.530859,
2009-11-03, 01:16:05,VALID,1000.07,VALID,0,VALID,93.0966,VALID,0,VALID,22.1795,VALID,27,VALID,0.484766,
2009-11-03, 01:17:05,VALID,1000.08,VALID,0,VALID,93.0661,VALID,0,VALID,22.1795,VALID,27,VALID,0.455469,
2009-11-03, 01:18:05,VALID,1000.06,VALID,0,VALID,93.0127,VALID,0,VALID,22.1779,VALID,27,VALID,0.486719,
2009-11-03, 01:19:05,VALID,1000.09,VALID,0,VALID,93.0585,VALID,0,VALID,22.199,VALID,28,VALID,0.604688,
2009-11-03, 01:20:05,VALID,1000.07,VALID,0,VALID,93.0127,VALID,0,VALID,22.199,VALID,54,VALID,0.695703,
2009-11-03, 01:21:05,VALID,1000.08,VALID,0,VALID,93.0203,VALID,0,VALID,22.2381,VALID,56,VALID,0.720703,
2009-11-03, 01:22:05,VALID,1000.09,VALID,0,VALID,93.0127,VALID,0,VALID,22.2576,VALID,56,VALID,0.715234,
2009-11-03, 01:23:05,VALID,1000.08,VALID,0,VALID,92.9822,VALID,0,VALID,22.2576,VALID,57,VALID,0.642187,
2009-11-03, 01:24:05,VALID,1000.07,VALID,0,VALID,92.9364,VALID,0,VALID,22.2966,VALID,60,VALID,0.532422,
2009-11-03, 01:25:05,VALID,1000.03,VALID,0,VALID,92.8983,VALID,0,VALID,22.2966,VALID,80,VALID,0.45,
2009-11-03, 01:26:05,VALID,1000.08,VALID,0,VALID,92.8601,VALID,0,VALID,22.2966,VALID,89,VALID,0.626953,
2009-11-03, 01:27:05,VALID,1000.04,VALID,0,VALID,92.8296,VALID,0,VALID,22.2966,VALID,102,VALID,0.628906,
2009-11-03, 01:28:05,VALID,1000.03,VALID,0,VALID,92.7914,VALID,0,VALID,22.3161,VALID,131,VALID,0.982031,
2009-11-03, 01:29:05,VALID,1000.01,VALID,0,VALID,92.7762,VALID,0,VALID,22.3161,VALID,133,VALID,0.636328,
2009-11-03, 01:30:05,VALID,1000,VALID,0,VALID,92.8143,VALID,0,VALID,22.3551,VALID,133,VALID,0.257813,
2009-11-03, 01:31:05,VALID,999.989,VALID,0,VALID,92.8143,VALID,0,VALID,22.3551,VALID,133,VALID,0.249609,
2009-11-03, 01:32:05,VALID,1000,VALID,0,VALID,92.7838,VALID,0,VALID,22.3746,VALID,133,VALID,0.471094,
2009-11-03, 01:33:05,VALID,999.989,VALID,0,VALID,92.7685,VALID,0,VALID,22.3941,VALID,133,VALID,0.0667969,
2009-11-03, 01:34:05,VALID,1000.01,VALID,0,VALID,92.7304,VALID,0,VALID,22.4136,VALID,133,VALID,0,
2009-11-03, 01:35:05,VALID,1000.01,VALID,0,VALID,92.7075,VALID,0,VALID,22.4136,VALID,133,VALID,0.0464844,
2009-11-03, 01:36:05,VALID,1000.01,VALID,0,VALID,92.6465,VALID,0,VALID,22.4136,VALID,133,VALID,0.426172,
2009-11-03, 01:37:05,VALID,1000,VALID,0,VALID,92.6236,VALID,0,VALID,22.4331,VALID,57,VALID,0.624609,
2009-11-03, 01:38:05,VALID,1000.01,VALID,0,VALID,92.6007,VALID,0,VALID,22.4526,VALID,55,VALID,0.589063,
2009-11-03, 01:39:05,VALID,999.99,VALID,0,VALID,92.5397,VALID,0,VALID,22.4721,VALID,55,VALID,0.539844,
2009-11-03, 01:40:05,VALID,1000.02,VALID,0,VALID,92.471,VALID,0,VALID,22.4916,VALID,55,VALID,0.437891,
2009-11-03, 01:41:05,VALID,999.985,VALID,0,VALID,92.5091,VALID,0,VALID,22.5111,VALID,55,VALID,0.590625,
2009-11-03, 01:42:05,VALID,999.989,VALID,0,VALID,92.471,VALID,0,VALID,22.5111,VALID,55,VALID,0.784766,
2009-11-03, 01:43:05,VALID,999.992,VALID,0,VALID,92.4328,VALID,0.112286,VALID,22.5094,VALID,55,VALID,0.650781,
2009-11-03, 01:44:05,VALID,999.985,VALID,0,VALID,92.4176,VALID,0,VALID,22.5306,VALID,55,VALID,0.494922,
2009-11-03, 01:45:05,VALID,999.982,VALID,0,VALID,92.3184,VALID,0,VALID,22.5306,VALID,55,VALID,0.544922,
2009-11-03, 01:46:05,VALID,999.964,VALID,0,VALID,92.2116,VALID,0,VALID,22.5111,VALID,55,VALID,0.545313,
2009-11-03, 01:47:05,VALID,999.989,VALID,0,VALID,92.2116,VALID,0,VALID,22.4916,VALID,55,VALID,0.485547,
2009-11-03, 01:48:05,VALID,999.933,VALID,0,VALID,92.1811,VALID,0,VALID,22.4509,VALID,55,VALID,0.266016,
2009-11-03, 01:49:05,VALID,999.932,VALID,0,VALID,92.1811,VALID,0,VALID,22.4314,VALID,55,VALID,0.149609,
2009-11-03, 01:50:05,VALID,999.949,VALID,0,VALID,92.12,VALID,0,VALID,22.4331,VALID,55,VALID,0.221484,
2009-11-03, 01:51:05,VALID,999.942,VALID,0,VALID,92.1353,VALID,0,VALID,22.4331,VALID,55,VALID,0,
2009-11-03, 01:52:05,VALID,999.934,VALID,0,VALID,92.2345,VALID,0,VALID,22.4331,VALID,88,VALID,0.49375,
2009-11-03, 01:53:05,VALID,999.938,VALID,0,VALID,92.1811,VALID,0,VALID,22.3924,VALID,88,VALID,0.274219,
2009-11-03, 01:54:05,VALID,999.939,VALID,0,VALID,92.0895,VALID,0,VALID,22.3941,VALID,88,VALID,0,
2009-11-03, 01:55:05,VALID,999.934,VALID,0,VALID,92.0437,VALID,0,VALID,22.3551,VALID,88,VALID,0,
2009-11-03, 01:56:05,VALID,999.942,VALID,0,VALID,92.1734,VALID,0,VALID,22.3551,VALID,88,VALID,0,
2009-11-03, 01:57:05,VALID,999.949,VALID,0,VALID,92.2803,VALID,0,VALID,22.3746,VALID,88,VALID,0,
2009-11-03, 01:58:05,VALID,999.95,VALID,0,VALID,92.3031,VALID,0,VALID,22.3746,VALID,88,VALID,0,
2009-11-03, 01:59:05,VALID,999.942,VALID,0,VALID,92.2726,VALID,0,VALID,22.3339,VALID,88,VALID,0,
2009-11-03, 02:00:05,VALID,999.953,VALID,0,VALID,92.3642,VALID,0,VALID,22.3551,VALID,88,VALID,0,
2009-11-03, 02:01:05,VALID,999.983,VALID,0,VALID,92.5091,VALID,0,VALID,22.3746,VALID,88,VALID,0,
2009-11-03, 02:02:05,VALID,999.987,VALID,0,VALID,92.5168,VALID,0,VALID,22.3941,VALID,128,VALID,0,
2009-11-03, 02:03:05,VALID,999.97,VALID,0,VALID,92.5626,VALID,0,VALID,22.4136,VALID,139,VALID,0.563672,
2009-11-03, 02:04:05,VALID,999.987,VALID,0,VALID,92.616,VALID,0,VALID,22.4526,VALID,156,VALID,0.788281,
2009-11-03, 02:05:05,VALID,999.985,VALID,0,VALID,92.7457,VALID,0,VALID,22.5111,VALID,165,VALID,0.863281,
2009-11-03, 02:06:05,VALID,1000.01,VALID,0,VALID,92.7457,VALID,0,VALID,22.5484,VALID,162,VALID,0.750391,
2009-11-03, 02:07:05,VALID,1000,VALID,0,VALID,92.6312,VALID,0,VALID,22.6087,VALID,154,VALID,0.545703,
2009-11-03, 02:08:05,VALID,1000,VALID,0,VALID,92.471,VALID,0,VALID,22.6282,VALID,154,VALID,0.0660156,
2009-11-03, 02:09:05,VALID,1000.01,VALID,0,VALID,92.3871,VALID,0,VALID,22.6477,VALID,162,VALID,0.00195313,
2009-11-03, 02:10:05,VALID,999.976,VALID,0,VALID,92.4557,VALID,0,VALID,22.6867,VALID,194,VALID,0.634766,
2009-11-03, 02:11:05,VALID,1000.02,VALID,0,VALID,92.4786,VALID,0,VALID,22.7647,VALID,185,VALID,0.716016,
2009-11-03, 02:12:05,VALID,1000.01,VALID,0,VALID,92.3718,VALID,0,VALID,22.8232,VALID,185,VALID,0.393359,
2009-11-03, 02:13:05,VALID,1000.03,VALID,0,VALID,92.2879,VALID,0,VALID,22.8623,VALID,185,VALID,0.177734,
2009-11-03, 02:14:05,VALID,999.992,VALID,0,VALID,92.059,VALID,0,VALID,22.8818,VALID,185,VALID,0,
2009-11-03, 02:15:05,VALID,1000.02,VALID,0,VALID,91.5783,VALID,0,VALID,22.8427,VALID,185,VALID,0.455859,
2009-11-03, 02:16:05,VALID,999.984,VALID,0,VALID,91.3037,VALID,0,VALID,22.7842,VALID,277,VALID,0.498437,
2009-11-03, 02:17:05,VALID,999.99,VALID,0,VALID,91.3876,VALID,0,VALID,22.7452,VALID,277,VALID,0.312891,
2009-11-03, 02:18:05,VALID,999.986,VALID,0,VALID,91.3494,VALID,0,VALID,22.7062,VALID,277,VALID,0.466016,
2009-11-03, 02:19:05,VALID,999.999,VALID,0,VALID,91.3418,VALID,0,VALID,22.7062,VALID,277,VALID,0.338281,
2009-11-03, 02:20:05,VALID,1000.02,VALID,0,VALID,91.3876,VALID,0,VALID,22.6655,VALID,277,VALID,0.251953,
2009-11-03, 02:21:05,VALID,999.986,VALID,0,VALID,91.3113,VALID,0,VALID,22.646,VALID,277,VALID,0.439063,
2009-11-03, 02:22:05,VALID,999.999,VALID,0,VALID,91.4639,VALID,0.112286,VALID,22.6069,VALID,342,VALID,0.565234,
2009-11-03, 02:23:05,VALID,1000.02,VALID,0,VALID,91.2503,VALID,0,VALID,22.5696,VALID,23,VALID,0.663672,
2009-11-03, 02:24:05,VALID,1000.01,VALID,0,VALID,91.3647,VALID,0,VALID,22.5501,VALID,23,VALID,0.421484,
2009-11-03, 02:25:05,VALID,999.985,VALID,0,VALID,91.5249,VALID,0,VALID,22.5111,VALID,23,VALID,0.234375,
2009-11-03, 02:26:05,VALID,1000.04,VALID,0,VALID,91.6851,VALID,0,VALID,22.5111,VALID,23,VALID,0.186719,
2009-11-03, 02:27:05,VALID,1000.03,VALID,0,VALID,91.8606,VALID,0,VALID,22.4899,VALID,23,VALID,0,
2009-11-03, 02:28:05,VALID,1000.02,VALID,0,VALID,91.9217,VALID,0,VALID,22.4916,VALID,23,VALID,0.00507812,
2009-11-03, 02:29:05,VALID,1000.03,VALID,0,VALID,92.0056,VALID,0,VALID,22.5111,VALID,23,VALID,0.503516,
2009-11-03, 02:30:05,VALID,1000.03,VALID,0,VALID,92.059,VALID,0,VALID,22.5306,VALID,23,VALID,0.488281,
2009-11-03, 02:31:05,VALID,1000,VALID,0,VALID,92.2192,VALID,0,VALID,22.5892,VALID,23,VALID,0.381641,
2009-11-03, 02:32:05,VALID,999.992,VALID,0,VALID,92.1811,VALID,0,VALID,22.6087,VALID,23,VALID,0.384375,
2009-11-03, 02:33:05,VALID,999.984,VALID,0,VALID,92.1582,VALID,0,VALID,22.6264,VALID,23,VALID,0.527344,
2009-11-03, 02:34:05,VALID,999.968,VALID,0,VALID,92.0666,VALID,0,VALID,22.6867,VALID,23,VALID,0.51875,
2009-11-03, 02:35:05,VALID,999.972,VALID,0,VALID,91.914,VALID,0,VALID,22.7062,VALID,23,VALID,0.607422,
2009-11-03, 02:36:05,VALID,999.973,VALID,0,VALID,91.6699,VALID,0,VALID,22.7062,VALID,23,VALID,0.536719,
2009-11-03, 02:37:05,VALID,1000.01,VALID,0,VALID,91.3647,VALID,0,VALID,22.6672,VALID,23,VALID,0.69375,
2009-11-03, 02:38:05,VALID,1000,VALID,0,VALID,91.174,VALID,0,VALID,22.6069,VALID,23,VALID,0.855859,
2009-11-03, 02:39:05,VALID,999.971,VALID,0,VALID,91.3266,VALID,0,VALID,22.5892,VALID,28,VALID,0.780469,
2009-11-03, 02:40:05,VALID,999.995,VALID,0,VALID,91.2731,VALID,0,VALID,22.5306,VALID,28,VALID,0.559375,
2009-11-03, 02:41:05,VALID,999.974,VALID,0,VALID,91.1968,VALID,0,VALID,22.4721,VALID,28,VALID,0.535547,
2009-11-03, 02:42:05,VALID,999.966,VALID,0,VALID,91.2274,VALID,0,VALID,22.4136,VALID,28,VALID,0.729688,
2009-11-03, 02:43:05,VALID,999.967,VALID,0,VALID,91.7157,VALID,0,VALID,22.4136,VALID,20,VALID,0.814453,
2009-11-03, 02:44:05,VALID,999.968,VALID,0,VALID,91.8606,VALID,0,VALID,22.3941,VALID,10,VALID,0.629687,
2009-11-03, 02:45:05,VALID,999.971,VALID,0,VALID,91.8835,VALID,0,VALID,22.3941,VALID,10,VALID,0.653516,
2009-11-03, 02:46:05,VALID,999.962,VALID,0,VALID,91.9445,VALID,0,VALID,22.3551,VALID,10,VALID,0.480469,
2009-11-03, 02:47:05,VALID,999.965,VALID,0,VALID,91.9293,VALID,0,VALID,22.3356,VALID,10,VALID,0.245312,
2009-11-03, 02:48:05,VALID,999.976,VALID,0,VALID,91.9827,VALID,0,VALID,22.3161,VALID,10,VALID,0.286328,
2009-11-03, 02:49:05,VALID,999.984,VALID,0,VALID,92.2268,VALID,0,VALID,22.3551,VALID,10,VALID,0.258594,
2009-11-03, 02:50:05,VALID,999.999,VALID,0,VALID,92.3184,VALID,0,VALID,22.3551,VALID,10,VALID,0,
2009-11-03, 02:51:05,VALID,1000.02,VALID,0,VALID,92.2345,VALID,0,VALID,22.3356,VALID,10,VALID,0,
2009-11-03, 02:52:05,VALID,1000.03,VALID,0,VALID,91.9445,VALID,0,VALID,22.2576,VALID,10,VALID,0,
2009-11-03, 02:53:05,VALID,1000.02,VALID,0,VALID,92.1734,VALID,0,VALID,22.2186,VALID,10,VALID,0,
2009-11-03, 02:54:05,VALID,1000.03,VALID,0,VALID,92.2879,VALID,0,VALID,22.2186,VALID,10,VALID,0,
2009-11-03, 02:55:05,VALID,1000.02,VALID,0,VALID,92.2497,VALID,0,VALID,22.2007,VALID,10,VALID,0,
2009-11-03, 02:56:05,VALID,1000.04,VALID,0,VALID,92.1963,VALID,0,VALID,22.16,VALID,30,VALID,0.326562,
2009-11-03, 02:57:05,VALID,1000.02,VALID,0,VALID,92.4328,VALID,0,VALID,22.1405,VALID,59,VALID,1.07227,
2009-11-03, 02:58:05,VALID,1000.02,VALID,0,VALID,92.265,VALID,0,VALID,22.1405,VALID,59,VALID,0.713672,
2009-11-03, 02:59:05,VALID,1000.03,VALID,0,VALID,91.8301,VALID,0,VALID,22.0625,VALID,58,VALID,0.552344,
2009-11-03, 03:00:05,VALID,1000.01,VALID,0,VALID,92.3566,VALID,0,VALID,22.0235,VALID,58,VALID,1.13984,
2009-11-03, 03:01:05,VALID,999.998,VALID,0,VALID,92.7457,VALID,0,VALID,22.121,VALID,58,VALID,0.889844,
2009-11-03, 03:02:05,VALID,1000.01,VALID,0,VALID,92.7609,VALID,0,VALID,22.1584,VALID,51,VALID,0.977734,
2009-11-03, 03:03:05,VALID,1000.01,VALID,0,VALID,92.4481,VALID,0,VALID,22.16,VALID,58,VALID,1.24336,
2009-11-03, 03:04:05,VALID,1000.01,VALID,0,VALID,92.6465,VALID,0,VALID,22.199,VALID,65,VALID,1.17891,
2009-11-03, 03:05:05,VALID,1000.02,VALID,0,VALID,92.4023,VALID,0,VALID,22.199,VALID,65,VALID,1.00664,
2009-11-03, 03:06:05,VALID,999.999,VALID,0,VALID,92.1734,VALID,0,VALID,22.16,VALID,65,VALID,0.776563,
2009-11-03, 03:07:05,VALID,1000.02,VALID,0,VALID,91.9674,VALID,0,VALID,22.0998,VALID,65,VALID,0.521875,
2009-11-03, 03:08:05,VALID,999.985,VALID,0,VALID,91.7843,VALID,0,VALID,22.0642,VALID,65,VALID,0.434375,
2009-11-03, 03:09:05,VALID,1000,VALID,0,VALID,92.0743,VALID,0,VALID,22.0235,VALID,30,VALID,0.672266,
2009-11-03, 03:10:05,VALID,999.986,VALID,0,VALID,92.2955,VALID,0,VALID,22.043,VALID,12,VALID,0.610547,
2009-11-03, 03:11:05,VALID,999.945,VALID,0,VALID,92.3108,VALID,0,VALID,22.0235,VALID,12,VALID,0.352734,
2009-11-03, 03:12:05,VALID,999.973,VALID,0,VALID,92.1429,VALID,0,VALID,22.004,VALID,12,VALID,0.574609,
2009-11-03, 03:13:05,VALID,999.957,VALID,0,VALID,92.2497,VALID,0,VALID,21.9845,VALID,12,VALID,0.648828,
2009-11-03, 03:14:04,VALID,999.956,VALID,0,VALID,92.1963,VALID,0,VALID,21.965,VALID,12,VALID,0.633203,
2009-11-03, 03:15:04,VALID,999.955,VALID,0,VALID,92.1124,VALID,0,VALID,21.9065,VALID,12,VALID,0.360547,
2009-11-03, 03:16:04,VALID,999.984,VALID,0,VALID,92.2879,VALID,0,VALID,21.8675,VALID,12,VALID,0,
2009-11-03, 03:17:04,VALID,1000,VALID,0,VALID,92.5397,VALID,0,VALID,21.848,VALID,16,VALID,0.907812,
2009-11-03, 03:18:04,VALID,1000.03,VALID,0,VALID,92.822,VALID,0,VALID,21.9065,VALID,35,VALID,1.46172,
2009-11-03, 03:19:04,VALID,1000.02,VALID,0,VALID,92.5702,VALID,0,VALID,21.926,VALID,51,VALID,1.53594,
2009-11-03, 03:20:04,VALID,1000.01,VALID,0,VALID,92.3871,VALID,0,VALID,21.887,VALID,51,VALID,1.43281,
2009-11-03, 03:21:04,VALID,1000.05,VALID,0,VALID,92.3794,VALID,0,VALID,21.8692,VALID,50,VALID,1.39219,
2009-11-03, 03:22:04,VALID,1000.08,VALID,0,VALID,92.5168,VALID,0,VALID,21.8675,VALID,50,VALID,1.23672,
2009-11-03, 03:23:04,VALID,1000.06,VALID,0,VALID,92.822,VALID,0,VALID,21.926,VALID,50,VALID,1.30469,
2009-11-03, 03:24:04,VALID,1000.07,VALID,0,VALID,92.8067,VALID,0,VALID,21.9845,VALID,45,VALID,1.24766,
2009-11-03, 03:25:04,VALID,1000.05,VALID,0,VALID,92.4634,VALID,0,VALID,21.965,VALID,37,VALID,1.11367,
2009-11-03, 03:26:04,VALID,1000.06,VALID,0,VALID,92.2421,VALID,0.112286,VALID,21.9455,VALID,42,VALID,0.697656,
2009-11-03, 03:27:04,VALID,1000.08,VALID,0,VALID,92.0819,VALID,0,VALID,21.887,VALID,67,VALID,0.456641,
2009-11-03, 03:28:04,VALID,1000.04,VALID,0,VALID,92.1658,VALID,0,VALID,21.8675,VALID,99,VALID,0.593359,
2009-11-03, 03:29:04,VALID,1000.04,VALID,0,VALID,92.2726,VALID,0,VALID,21.848,VALID,120,VALID,0.587109,
2009-11-03, 03:30:04,VALID,1000.04,VALID,0,VALID,92.471,VALID,0,VALID,21.8285,VALID,104,VALID,0.741406,
2009-11-03, 03:31:04,VALID,1000.07,VALID,0,VALID,92.6923,VALID,0,VALID,21.8675,VALID,71,VALID,0.706641,
2009-11-03, 03:32:04,VALID,1000.04,VALID,0,VALID,92.5168,VALID,0.112286,VALID,21.848,VALID,46,VALID,0.9,
2009-11-03, 03:33:04,VALID,1000.04,VALID,0,VALID,92.2345,VALID,0,VALID,21.77,VALID,41,VALID,0.782422,
2009-11-03, 03:34:04,VALID,1000.01,VALID,0,VALID,92.0743,VALID,0,VALID,21.6708,VALID,41,VALID,0.621484,
2009-11-03, 03:35:04,VALID,1000.04,VALID,0,VALID,92.326,VALID,0.112286,VALID,21.653,VALID,41,VALID,0.630859,
2009-11-03, 03:36:04,VALID,1000.03,VALID,0,VALID,92.4023,VALID,0,VALID,21.6335,VALID,41,VALID,0.370313,
2009-11-03, 03:37:04,VALID,1000.05,VALID,0,VALID,92.4786,VALID,0,VALID,21.5945,VALID,41,VALID,0.176563,
2009-11-03, 03:38:04,VALID,1000.03,VALID,0,VALID,92.7609,VALID,0,VALID,21.5945,VALID,41,VALID,0.394141,
2009-11-03, 03:39:04,VALID,1000.06,VALID,0,VALID,92.9745,VALID,0,VALID,21.6318,VALID,41,VALID,0.480469,
2009-11-03, 03:40:04,VALID,1000.05,VALID,0,VALID,93.089,VALID,0,VALID,21.692,VALID,41,VALID,0.521484,
2009-11-03, 03:41:04,VALID,1000.03,VALID,0,VALID,93.1729,VALID,0,VALID,21.731,VALID,41,VALID,0.594531,
2009-11-03, 03:42:04,VALID,1000.06,VALID,0,VALID,93.0966,VALID,0,VALID,21.7505,VALID,41,VALID,0.329297,
2009-11-03, 03:43:04,VALID,1000.07,VALID,0,VALID,92.9593,VALID,0,VALID,21.7115,VALID,41,VALID,0.173047,
2009-11-03, 03:44:04,VALID,1000.05,VALID,0,VALID,92.9135,VALID,0,VALID,21.6725,VALID,41,VALID,0.166797,
2009-11-03, 03:45:04,VALID,1000.07,VALID,0,VALID,92.9211,VALID,0,VALID,21.6741,VALID,41,VALID,0,
2009-11-03, 03:46:04,VALID,1000.06,VALID,0,VALID,92.9593,VALID,0,VALID,21.653,VALID,41,VALID,0,
2009-11-03, 03:47:04,VALID,1000.09,VALID,0,VALID,92.9822,VALID,0,VALID,21.653,VALID,41,VALID,0,
2009-11-03, 03:48:04,VALID,1000.06,VALID,0,VALID,93.028,VALID,0,VALID,21.653,VALID,41,VALID,0,
2009-11-03, 03:49:04,VALID,1000.09,VALID,0,VALID,93.089,VALID,0,VALID,21.6725,VALID,41,VALID,0,